Flag for U.S.A. Weather past 2 weeks in Arden-Arcade, California, U.S.A.

Now
91 °F

Partly sunny.


Feels Like: N/A
Forecast: 71 / 105 °F
Wind: 10 mph from South

Location: Mather Field

Current Time: Jul 1, 2015 at 12:49:48 PM

Latest Report: Jul 1, 2015 at 11:45 AM


Visibility: 10 mi

Pressure: 29.88 "Hg

Humidity: N/A

Dew point: N/A

Location of Arden-ArcadeLocation

Historic Weather in Arden-Arcade — Graph

°F

Arden-Arcade temperature yesterday

Maximum temperature yesterday: 106 °F (at 5:45 PM)
Minimum temperature yesterday: 68 °F (at 2:55 AM)
Average temperature yesterday: 88 °F

Past Weeks' High & Low Weather Summary

 TemperatureHumidityPressure
High106 °F (Jun 30, 5:45 PM)94% (Jun 29, 4:50 AM)30.02 "Hg (Jun 29, 4:50 AM)
Low50 °F (Jun 22, 4:45 AM)13% (Jun 20, 5:50 PM)29.74 "Hg (Jun 30, 5:45 PM)
Average79 °F40%29.88 "Hg
* Reported Jun 16 10:53 AM — Jul 1 10:45 AM, Arden-Arcade, Weather by CustomWeather, © 2015

Note: Actual official high and low records may vary slightly from our data, if they occured in-between our weather recording intervals... More about our weather records

Advertising

Arden-Arcade weather history for previous 24 hours

 ConditionsComfort  
Time TempWeatherWind HumidityBarometerVisibility
10:45 AM
Wed, Jul 1
88 °FPartly sunny.13 mph33%29.87 "Hg10 mi
9:45 AM84 °FPartly sunny.6 mph33%29.84 "Hg10 mi
8:45 AM79 °FPartly sunny.3 mph37%29.81 "Hg10 mi
7:45 AM75 °FScattered clouds.No wind41%29.79 "Hg10 mi
6:52 AM73 °FScattered clouds.No wind44%29.78 "Hg10 mi
5:50 AM70 °FClear.3 mph50%29.76 "Hg10 mi
3:55 AM73 °FClear.3 mph41%29.76 "Hg10 mi
2:55 AM73 °FClear.3 mph41%29.77 "Hg10 mi
9:45 PM
Tue, Jun 30
86 °FPassing clouds.5 mph35%29.78 "Hg10 mi
8:45 PM93 °FScattered clouds.8 mph26%29.76 "Hg10 mi
7:45 PM102 °FSunny.12 mph16%29.75 "Hg10 mi
6:45 PM104 °FSunny.7 mph14%29.74 "Hg10 mi
5:45 PM106 °FExtremely hot.7 mph13%29.74 "Hg10 mi
3:45 PM104 °FScattered clouds.7 mph15%29.76 "Hg10 mi
2:45 PM102 °FScattered clouds.7 mph14%29.79 "Hg10 mi
1:45 PM100 °FScattered clouds.6 mph20%29.81 "Hg10 mi
12:45 PM99 °FScattered clouds.8 mph21%29.83 "Hg10 mi
Weather by CustomWeather, © 2015

See weather overviewHow to use our weather pages